Deer Park, WA

12:31 AM PDT on September 24, 2017 (GMT -0700)
Deer Park

Weather History for KDEW - October, 2012

Change the Weather History Date:

Thursday, October 25, 2012

  Actual Average Record
Temperature  
Mean Temperature 39 °F 41 °F  
Max Temperature 44 °F 53 °F 64 °F (2005)
Min Temperature 34 °F 29 °F 10 °F (2002)
Degree Days  
Heating Degree Days 26 24  
Month to date heating degree days 486 498  
Since 1 July heating degree days 796 917  
Cooling Degree Days 0 0  
Month to date cooling degree days 0 0  
Year to date cooling degree days 232 187  
Moisture  
Dew Point 36 °F    
Average Humidity 88    
Maximum Humidity 100    
Minimum Humidity 76    
Precipitation  
Precipitation 0.07 in 0.07 in 0.40 in (2010)
Month to date precipitation 1.00 1.22  
Year to date precipitation 18.76 15.66  
Sea Level Pressure  
Sea Level Pressure 30.31 in    
Wind  
Wind Speed 3 mph (SE)    
Max Wind Speed 8 mph    
Max Gust Speed 10 mph    
Visibility 10 miles    
Events Rain    
T = Trace of Precipitation, MM = Missing Value Source: NWS Daily Summary

Daily Weather History Graph

Daily Weather History Graph

Search for Another Location

Airport or City:

Trip Planner

Search our weather history database for the weather conditions in past years. The results will help you decide how hot, cold, wet, or windy it might be!

Date:

Astronomy

Oct. 25, 2012 Rise Set
Actual Time 7:24 AM PDT 5:41 PM PDT
Civil Twilight 6:52 AM PDT 6:13 PM PDT
Nautical Twilight 6:16 AM PDT 6:50 PM PDT
Astronomical Twilight 5:40 AM PDT 7:25 PM PDT
Moon 3:43 PM PDT (10/25) 3:10 AM PDT (10/25)
Length of Visible Light 11h 21m
Length of Day
10h 17m
Waxing Gibbous, 85% of the Moon is Illuminated
Oct 25
Waxing Gibbous
Oct 29
Full
Nov 6
Last Quarter
Nov 13
New
Nov 20
First Quarter

Hourly Weather History & Observations

Time (PDT) Temp. Windchill Dew Point Humidity Pressure Visibility Wind Dir Wind Speed Gust Speed Precip Events Conditions
12:00 AM 37.4 °F - 37.4 °F 100% 30.12 in 10.0 mi Calm Calm - N/A   Overcast
12:35 AM 37.4 °F 34.9 °F 37.4 °F 100% 30.13 in 9.0 mi NE 3.5 mph - N/A   Overcast
12:43 AM 37.4 °F 34.9 °F 35.6 °F 93% 30.13 in 10.0 mi NE 3.5 mph - N/A   Overcast
12:53 AM 37.0 °F 34.5 °F 36.0 °F 96% 30.17 in 10.0 mi ENE 3.5 mph - N/A   Overcast
1:34 AM 35.6 °F 32.8 °F 35.6 °F 100% 30.14 in 10.0 mi NE 3.5 mph - 0.00 in   Overcast
1:53 AM 36.0 °F - 36.0 °F 100% 30.19 in 10.0 mi Calm Calm - 0.00 in   Overcast
2:53 AM 36.0 °F - 35.1 °F 97% 30.20 in 10.0 mi Calm Calm - N/A   Overcast
3:23 AM 35.6 °F - 35.6 °F 100% 30.16 in 10.0 mi Calm Calm - N/A   Overcast
3:53 AM 36.0 °F - 36.0 °F 100% 30.22 in 2.5 mi Calm Calm - 0.03 in Rain Heavy Rain
4:01 AM 35.6 °F - 35.6 °F 100% 30.17 in 3.0 mi Calm Calm - 0.03 in Rain Heavy Rain
4:13 AM 35.6 °F - 35.6 °F 100% 30.18 in 5.0 mi Calm Calm - 0.04 in Rain Light Rain
4:53 AM 35.1 °F 32.2 °F 35.1 °F 100% 30.23 in 10.0 mi ENE 3.5 mph - 0.04 in   Overcast
5:05 AM 35.6 °F 32.8 °F 33.8 °F 93% 30.19 in 10.0 mi NE 3.5 mph - N/A   Overcast
5:32 AM 33.8 °F - 33.8 °F 100% 30.20 in 10.0 mi Calm Calm - N/A   Overcast
5:53 AM 35.1 °F - 35.1 °F 100% 30.25 in 10.0 mi Calm Calm - N/A   Overcast
7:53 AM 36.0 °F - 36.0 °F 100% 30.30 in 10.0 mi Calm Calm - N/A   Overcast
8:53 AM 37.0 °F - 36.0 °F 96% 30.32 in 10.0 mi Calm Calm - N/A   Overcast
9:17 AM 37.4 °F - 35.6 °F 93% 30.27 in 10.0 mi Calm Calm - N/A   Overcast
9:53 AM 37.9 °F - 37.0 °F 97% 30.34 in 10.0 mi Calm Calm - N/A   Overcast
10:06 AM 37.4 °F - 37.4 °F 100% 30.29 in 10.0 mi Calm Calm - N/A   Overcast
10:53 AM 39.9 °F 37.8 °F 37.0 °F 89% 30.36 in 10.0 mi NE 3.5 mph - N/A   Overcast
11:39 AM 41.0 °F - 37.4 °F 87% 30.32 in 10.0 mi Calm Calm - N/A   Overcast
11:53 AM 39.9 °F 35.8 °F 37.9 °F 93% 30.37 in 10.0 mi SE 5.8 mph - N/A   Overcast
12:09 PM 39.2 °F 35.9 °F 37.4 °F 93% 30.33 in 10.0 mi SE 4.6 mph - N/A   Overcast
12:53 PM 41.0 °F 39.0 °F 37.0 °F 86% 30.39 in 10.0 mi SE 3.5 mph - N/A   Mostly Cloudy
1:37 PM 42.8 °F 39.3 °F 37.4 °F 81% 30.34 in 10.0 mi South 5.8 mph - N/A   Overcast
1:53 PM 41.0 °F 38.0 °F 37.0 °F 86% 30.40 in 10.0 mi South 4.6 mph - N/A   Overcast
2:28 PM 41.0 °F 36.4 °F 35.6 °F 81% 30.36 in 10.0 mi SSW 6.9 mph - N/A   Overcast
2:53 PM 41.0 °F 36.4 °F 37.9 °F 89% 30.40 in 10.0 mi South 6.9 mph - N/A   Overcast
3:53 PM 42.1 °F 38.4 °F 35.1 °F 76% 30.41 in 10.0 mi SSE 5.8 mph - N/A   Overcast
4:53 PM 41.0 °F 37.1 °F 36.0 °F 82% 30.43 in 10.0 mi SSE 5.8 mph - N/A   Overcast
5:53 PM 39.9 °F 37.8 °F 37.0 °F 89% 30.45 in 10.0 mi South 3.5 mph - N/A   Overcast
6:53 PM 39.0 °F 34.8 °F 36.0 °F 89% 30.45 in 10.0 mi SSE 5.8 mph - N/A   Overcast
7:53 PM 37.0 °F 32.4 °F 36.0 °F 96% 30.46 in 10.0 mi South 5.8 mph - N/A   Overcast
8:17 PM 37.4 °F 33.8 °F 35.6 °F 93% 30.40 in 10.0 mi SE 4.6 mph - N/A   Mostly Cloudy
8:53 PM 37.0 °F 32.4 °F 36.0 °F 96% 30.44 in 10.0 mi SSE 5.8 mph - N/A   Mostly Cloudy
9:13 PM 37.4 °F 33.8 °F 37.4 °F 100% 30.40 in 10.0 mi South 4.6 mph - N/A   Overcast
9:42 PM 37.4 °F 32.8 °F 35.6 °F 93% 30.40 in 10.0 mi South 5.8 mph - N/A   Overcast
9:53 PM 37.0 °F 32.4 °F 36.0 °F 96% 30.45 in 10.0 mi South 5.8 mph - N/A   Overcast
10:53 PM 37.0 °F - 36.0 °F 96% 30.46 in 10.0 mi Calm Calm - N/A   Overcast
11:53 PM 37.0 °F - 35.1 °F 93% 30.45 in 10.0 mi Calm Calm - N/A   Overcast